Time,TemperatureF,DewpointF,PressureIn,WindDirection,WindDirectionDegrees,WindSpeedMPH,WindSpeedGustMPH,Humidity,HourlyPrecipIn,Conditions,Clouds,dailyrainin,SoftwareType,DateUTC
2013-01-21 00:04:00,15.8,7.0,30.21,NNW,338,0.0,3.0,69,0.00,,,0.00,weatherlink.com 1.10,2013-01-21 05:04:00,
2013-01-21 00:19:00,15.7,7.0,30.19,NNW,341,0.0,2.0,69,0.00,,,0.00,weatherlink.com 1.10,2013-01-21 05:19:00,
2013-01-21 00:34:00,15.6,7.0,30.19,NNW,342,0.0,4.0,69,0.00,,,0.00,weatherlink.com 1.10,2013-01-21 05:34:00,
2013-01-21 00:49:00,15.6,7.0,30.18,NNW,347,2.0,3.0,69,0.00,,,0.00,weatherlink.com 1.10,2013-01-21 05:49:00,
2013-01-21 01:04:00,15.5,7.0,30.18,North,355,0.0,5.0,69,0.00,,,0.00,weatherlink.com 1.10,2013-01-21 06:04:00,
2013-01-21 01:19:00,15.5,7.0,30.17,NW,314,0.0,3.0,70,0.00,,,0.00,weatherlink.com 1.10,2013-01-21 06:19:00,
2013-01-21 01:34:00,15.6,8.0,30.16,NW,314,0.0,2.0,71,0.00,,,0.00,weatherlink.com 1.10,2013-01-21 06:34:00,
2013-01-21 01:49:00,15.5,8.0,30.16,NNW,346,0.0,3.0,71,0.00,,,0.00,weatherlink.com 1.10,2013-01-21 06:49:00,
2013-01-21 02:04:00,15.3,7.0,30.16,NNW,346,0.0,2.0,71,0.00,,,0.00,weatherlink.com 1.10,2013-01-21 07:04:00,
2013-01-21 02:19:00,15.2,8.0,30.16,NNW,346,0.0,1.0,72,0.00,,,0.00,weatherlink.com 1.10,2013-01-21 07:19:00,
2013-01-21 02:34:00,15.2,8.0,30.16,NNW,346,0.0,1.0,72,0.00,,,0.00,weatherlink.com 1.10,2013-01-21 07:34:00,
2013-01-21 02:49:00,15.2,8.0,30.16,NNW,346,0.0,1.0,73,0.00,,,0.00,weatherlink.com 1.10,2013-01-21 07:49:00,
2013-01-21 03:04:00,15.2,8.0,30.15,NNW,346,0.0,1.0,74,0.00,,,0.00,weatherlink.com 1.10,2013-01-21 08:04:00,
2013-01-21 03:19:00,15.0,8.0,30.14,NNW,341,1.0,2.0,75,0.00,,,0.00,weatherlink.com 1.10,2013-01-21 08:19:00,
2013-01-21 03:34:00,15.0,9.0,30.14,NNW,341,0.0,2.0,76,0.00,,,0.00,weatherlink.com 1.10,2013-01-21 08:34:00,
2013-01-21 03:49:00,15.1,9.0,30.13,NNW,343,2.0,2.0,78,0.00,,,0.00,weatherlink.com 1.10,2013-01-21 08:49:00,
2013-01-21 04:05:00,15.2,10.0,30.12,NNW,346,0.0,1.0,78,0.00,,,0.00,weatherlink.com 1.10,2013-01-21 09:05:00,
2013-01-21 04:20:00,15.2,10.0,30.11,NNW,347,0.0,2.0,79,0.00,,,0.00,weatherlink.com 1.10,2013-01-21 09:20:00,
2013-01-21 04:35:00,15.3,10.0,30.11,NW,318,1.0,2.0,80,0.00,,,0.00,weatherlink.com 1.10,2013-01-21 09:35:00,
2013-01-21 04:50:00,15.3,10.0,30.10,WNW,294,0.0,3.0,80,0.00,,,0.00,weatherlink.com 1.10,2013-01-21 09:50:00,
2013-01-21 05:05:00,15.4,11.0,30.10,West,281,1.0,2.0,82,0.00,,,0.00,weatherlink.com 1.10,2013-01-21 10:05:00,
2013-01-21 05:20:00,15.4,11.0,30.09,West,281,0.0,2.0,84,0.00,,,0.00,weatherlink.com 1.10,2013-01-21 10:20:00,
2013-01-21 05:35:00,15.4,11.0,30.09,West,281,0.0,1.0,84,0.00,,,0.00,weatherlink.com 1.10,2013-01-21 10:35:00,
2013-01-21 05:50:00,15.4,11.0,30.09,West,273,0.0,2.0,84,0.00,,,0.00,weatherlink.com 1.10,2013-01-21 10:50:00,
2013-01-21 06:05:00,15.5,12.0,30.08,West,270,1.0,2.0,85,0.00,,,0.00,weatherlink.com 1.10,2013-01-21 11:05:00,
2013-01-21 06:20:00,15.5,12.0,30.07,West,269,0.0,2.0,86,0.00,,,0.00,weatherlink.com 1.10,2013-01-21 11:20:00,
2013-01-21 06:35:00,15.7,13.0,30.07,SW,231,1.0,3.0,87,0.00,,,0.00,weatherlink.com 1.10,2013-01-21 11:35:00,
2013-01-21 06:50:00,16.2,13.0,30.07,SSW,197,1.0,4.0,86,0.00,,,0.00,weatherlink.com 1.10,2013-01-21 11:50:00,
2013-01-21 07:05:00,16.7,13.0,30.07,South,190,1.0,5.0,85,0.00,,,0.00,weatherlink.com 1.10,2013-01-21 12:05:00,
2013-01-21 07:20:00,17.0,13.0,30.07,South,189,2.0,5.0,84,0.00,,,0.00,weatherlink.com 1.10,2013-01-21 12:20:00,
2013-01-21 07:35:00,17.1,13.0,30.06,SSE,163,1.0,8.0,85,0.00,,,0.00,weatherlink.com 1.10,2013-01-21 12:35:00,
2013-01-21 07:50:00,16.8,13.0,30.07,North,355,3.0,5.0,86,0.00,,,0.00,weatherlink.com 1.10,2013-01-21 12:50:00,
2013-01-21 08:05:00,15.9,13.0,30.07,NW,325,0.0,4.0,88,0.00,,,0.00,weatherlink.com 1.10,2013-01-21 13:05:00,
2013-01-21 08:20:00,15.6,13.0,30.07,West,260,0.0,3.0,88,0.00,,,0.00,weatherlink.com 1.10,2013-01-21 13:20:00,
2013-01-21 08:35:00,15.3,12.0,30.07,WSW,245,1.0,3.0,88,0.00,,,0.00,weatherlink.com 1.10,2013-01-21 13:35:00,
2013-01-21 08:50:00,15.3,12.0,30.07,NW,312,0.0,3.0,88,0.00,,,0.00,weatherlink.com 1.10,2013-01-21 13:50:00,
2013-01-21 09:05:00,15.2,12.0,30.07,NNW,339,4.0,6.0,86,0.00,,,0.00,weatherlink.com 1.10,2013-01-21 14:05:00,
2013-01-21 09:20:00,15.2,11.0,30.07,NNW,336,0.0,8.0,84,0.00,,,0.00,weatherlink.com 1.10,2013-01-21 14:20:00,
2013-01-21 09:35:00,14.8,11.0,30.07,NNE,17,3.0,7.0,84,0.00,,,0.00,weatherlink.com 1.10,2013-01-21 14:35:00,
2013-01-21 09:50:00,15.1,11.0,30.07,NNW,329,1.0,3.0,83,0.00,,,0.00,weatherlink.com 1.10,2013-01-21 14:50:00,
2013-01-21 10:05:00,15.5,11.0,30.07,NNW,343,2.0,5.0,81,0.00,,,0.00,weatherlink.com 1.10,2013-01-21 15:05:00,
2013-01-21 10:20:00,15.6,11.0,30.07,North,355,1.0,6.0,81,0.00,,,0.00,weatherlink.com 1.10,2013-01-21 15:20:00,
2013-01-21 10:35:00,15.2,11.0,30.07,SW,228,1.0,5.0,82,0.00,,,0.00,weatherlink.com 1.10,2013-01-21 15:35:00,
2013-01-21 10:50:00,15.0,10.0,30.07,NNW,348,2.0,7.0,80,0.00,,,0.00,weatherlink.com 1.10,2013-01-21 15:50:00,
2013-01-21 11:05:00,15.6,11.0,30.06,NNE,15,3.0,8.0,80,0.00,,,0.00,weatherlink.com 1.10,2013-01-21 16:05:00,
2013-01-21 11:20:00,15.7,11.0,30.06,NNW,336,1.0,6.0,81,0.00,,,0.00,weatherlink.com 1.10,2013-01-21 16:20:00,
2013-01-21 11:35:00,15.6,11.0,30.06,NNW,335,2.0,8.0,81,0.00,,,0.00,weatherlink.com 1.10,2013-01-21 16:35:00,
2013-01-21 11:50:00,14.5,9.0,30.05,NNW,337,2.0,6.0,78,0.00,,,0.00,weatherlink.com 1.10,2013-01-21 16:50:00,
2013-01-21 12:06:00,15.4,9.0,30.04,NNW,329,3.0,8.0,77,0.00,,,0.00,weatherlink.com 1.10,2013-01-21 17:06:00,
2013-01-21 12:21:00,15.9,9.0,30.04,NW,322,2.0,6.0,74,0.00,,,0.00,weatherlink.com 1.10,2013-01-21 17:21:00,
2013-01-21 12:36:00,16.0,8.0,30.03,NNW,344,1.0,7.0,72,0.00,,,0.00,weatherlink.com 1.10,2013-01-21 17:36:00,
2013-01-21 12:51:00,15.4,8.0,30.03,NNE,19,5.0,9.0,73,0.00,,,0.00,weatherlink.com 1.10,2013-01-21 17:51:00,
2013-01-21 13:06:00,15.7,6.0,30.03,NNW,346,5.0,10.0,66,0.00,,,0.00,weatherlink.com 1.10,2013-01-21 18:06:00,
2013-01-21 13:21:00,15.5,6.0,30.03,NNW,338,4.0,8.0,67,0.00,,,0.00,weatherlink.com 1.10,2013-01-21 18:21:00,
2013-01-21 13:36:00,16.1,7.0,30.03,SW,223,1.0,8.0,68,0.00,,,0.00,weatherlink.com 1.10,2013-01-21 18:36:00,
2013-01-21 13:51:00,15.6,7.0,30.03,SW,218,2.0,8.0,70,0.00,,,0.00,weatherlink.com 1.10,2013-01-21 18:51:00,
2013-01-21 14:06:00,14.5,9.0,30.04,SSW,208,5.0,11.0,77,0.00,,,0.00,weatherlink.com 1.10,2013-01-21 19:06:00,
2013-01-21 14:21:00,14.6,8.0,30.04,WNW,290,2.0,8.0,75,0.00,,,0.00,weatherlink.com 1.10,2013-01-21 19:21:00,
2013-01-21 14:36:00,14.9,5.0,30.04,NNW,328,1.0,12.0,66,0.00,,,0.00,weatherlink.com 1.10,2013-01-21 19:36:00,
2013-01-21 14:51:00,13.6,4.0,30.05,NNW,340,2.0,9.0,66,0.00,,,0.00,weatherlink.com 1.10,2013-01-21 19:51:00,
2013-01-21 15:06:00,14.6,5.0,30.05,WSW,252,2.0,6.0,66,0.00,,,0.00,weatherlink.com 1.10,2013-01-21 20:06:00,
2013-01-21 15:21:00,14.8,4.0,30.06,WSW,242,3.0,9.0,62,0.00,,,0.00,weatherlink.com 1.10,2013-01-21 20:21:00,
2013-01-21 15:36:00,14.0,3.0,30.06,NNE,13,2.0,9.0,63,0.00,,,0.00,weatherlink.com 1.10,2013-01-21 20:36:00,
2013-01-21 15:51:00,14.1,2.0,30.07,South,184,3.0,11.0,59,0.00,,,0.00,weatherlink.com 1.10,2013-01-21 20:51:00,
2013-01-21 16:06:00,13.1,2.0,30.08,SW,229,3.0,8.0,60,0.00,,,0.00,weatherlink.com 1.10,2013-01-21 21:06:00,
2013-01-21 16:21:00,12.5,3.0,30.08,West,273,2.0,7.0,66,0.00,,,0.00,weatherlink.com 1.10,2013-01-21 21:21:00,
2013-01-21 16:36:00,12.5,4.0,30.08,West,263,2.0,10.0,69,0.00,,,0.00,weatherlink.com 1.10,2013-01-21 21:36:00,
2013-01-21 16:51:00,11.7,7.0,30.09,WSW,258,2.0,10.0,82,0.00,,,0.00,weatherlink.com 1.10,2013-01-21 21:51:00,
2013-01-21 17:06:00,11.2,5.0,30.09,NNW,334,3.0,9.0,76,0.00,,,0.00,weatherlink.com 1.10,2013-01-21 22:06:00,
2013-01-21 17:21:00,10.6,1.0,30.09,WSW,257,1.0,6.0,66,0.00,,,0.00,weatherlink.com 1.10,2013-01-21 22:21:00,
2013-01-21 17:36:00,10.5,2.0,30.10,NNW,342,1.0,6.0,69,0.00,,,0.00,weatherlink.com 1.10,2013-01-21 22:36:00,
2013-01-21 17:51:00,10.4,5.0,30.10,SW,224,3.0,6.0,80,0.00,,,0.00,weatherlink.com 1.10,2013-01-21 22:51:00,
2013-01-21 18:06:00,9.9,5.0,30.11,WNW,286,2.0,7.0,80,0.00,,,0.00,weatherlink.com 1.10,2013-01-21 23:06:00,
2013-01-21 18:21:00,9.2,4.0,30.11,West,263,0.0,4.0,80,0.00,,,0.00,weatherlink.com 1.10,2013-01-21 23:21:00,
2013-01-21 18:36:00,8.7,3.0,30.12,WNW,289,1.0,7.0,78,0.00,,,0.00,weatherlink.com 1.10,2013-01-21 23:36:00,
2013-01-21 18:51:00,8.4,2.0,30.12,WSW,238,1.0,8.0,76,0.00,,,0.00,weatherlink.com 1.10,2013-01-21 23:51:00,
2013-01-21 19:06:00,7.7,1.0,30.13,WSW,242,1.0,6.0,73,0.00,,,0.00,weatherlink.com 1.10,2013-01-22 00:06:00,
2013-01-21 19:21:00,7.2,0.0,30.13,NW,313,1.0,6.0,72,0.00,,,0.00,weatherlink.com 1.10,2013-01-22 00:21:00,
2013-01-21 19:36:00,6.8,-1.0,30.13,WSW,242,1.0,6.0,72,0.00,,,0.00,weatherlink.com 1.10,2013-01-22 00:36:00,
2013-01-21 19:52:00,6.5,-1.0,30.13,WSW,242,1.0,4.0,71,0.00,,,0.00,weatherlink.com 1.10,2013-01-22 00:52:00,
2013-01-21 20:07:00,6.2,-1.0,30.14,NNE,30,1.0,5.0,71,0.00,,,0.00,weatherlink.com 1.10,2013-01-22 01:07:00,
2013-01-21 20:22:00,6.1,-1.0,30.14,NNW,338,0.0,4.0,71,0.00,,,0.00,weatherlink.com 1.10,2013-01-22 01:22:00,
2013-01-21 20:37:00,5.9,-1.0,30.14,WNW,302,1.0,6.0,72,0.00,,,0.00,weatherlink.com 1.10,2013-01-22 01:37:00,
2013-01-21 20:52:00,5.7,-1.0,30.15,NW,309,0.0,2.0,73,0.00,,,0.00,weatherlink.com 1.10,2013-01-22 01:52:00,
2013-01-21 21:07:00,5.4,-1.0,30.15,WNW,294,1.0,4.0,74,0.00,,,0.00,weatherlink.com 1.10,2013-01-22 02:07:00,
2013-01-21 21:22:00,5.0,-1.0,30.16,West,273,1.0,3.0,75,0.00,,,0.00,weatherlink.com 1.10,2013-01-22 02:22:00,
2013-01-21 21:37:00,4.6,-2.0,30.16,West,270,0.0,3.0,75,0.00,,,0.00,weatherlink.com 1.10,2013-01-22 02:37:00,
2013-01-21 21:52:00,4.3,-2.0,30.16,SW,220,2.0,3.0,75,0.00,,,0.00,weatherlink.com 1.10,2013-01-22 02:52:00,
2013-01-21 22:07:00,4.0,-2.0,30.17,SW,225,0.0,2.0,75,0.00,,,0.00,weatherlink.com 1.10,2013-01-22 03:07:00,
2013-01-21 22:22:00,3.8,-2.0,30.17,SW,229,0.0,4.0,76,0.00,,,0.00,weatherlink.com 1.10,2013-01-22 03:22:00,
2013-01-21 22:37:00,3.6,-2.0,30.17,West,281,2.0,3.0,78,0.00,,,0.00,weatherlink.com 1.10,2013-01-22 03:37:00,
2013-01-21 22:52:00,3.6,-2.0,30.18,NNW,333,2.0,5.0,77,0.00,,,0.00,weatherlink.com 1.10,2013-01-22 03:52:00,
2013-01-21 23:07:00,3.6,-2.0,30.18,WNW,286,2.0,3.0,78,0.00,,,0.00,weatherlink.com 1.10,2013-01-22 04:07:00,
2013-01-21 23:23:00,3.5,-2.0,30.18,WNW,285,0.0,6.0,77,0.00,,,0.00,weatherlink.com 1.10,2013-01-22 04:23:00,
2013-01-21 23:38:00,3.5,-3.0,30.18,NW,317,2.0,7.0,74,0.00,,,0.00,weatherlink.com 1.10,2013-01-22 04:38:00,
2013-01-21 23:53:00,3.5,-3.0,30.18,NNW,341,0.0,5.0,73,0.00,,,0.00,weatherlink.com 1.10,2013-01-22 04:53:00,